Location: Borojevi?i
(45.0486°N, 16.2297°E)
Time: 17:09:48
(UTC+00:00)

Cosmos 1725 Rocket - Pass Details

Date: 08 August 2020
Orbit: 961 x 991 km, 82.9° (Epoch: 24 September)

Event Time Altitude Azimuth Distance (km) Brightness Sun altitude
Exits shadow 22:27:17 53° 248° (WSW) 1,199 4.3 -28.7°
Maximum altitude 22:28:12 58° 282° (WNW) 1,141 4.3 -28.7°
Drops below altitude 10° 22:34:28 10° 1° (N) 2,764 7.3 -28.9°
Sets 22:37:04 0° 6° (N) 3,718 8.2 -28.9°
